[[{"header":{"parameterUnit":"m.s-1","parameterCategory":1,"la1":30.2991,"la2":30.254,"lo1":-89.0895,"lo2":-89.0444,"dy":0.0017,"dx":0.0017,"nx":28,"ny":28,"refTime":"2024-08-18T03:00:00:Z","depth":0,"parameterNumber":2,"parameterNumberName":"U-component_of_WINDS"},"data":[0,0,0,0,0,0,0,0,0,0,0,0,0,0,0,0,0,0,0,0,0,0,0,0,0,0,0,0,0,0,0,0,0,0,0,0,0,0,0,0,0,0,0,0,0,0,0,0,0,0,0,0,0,0,0,0,0,0,5.1092,5.1094,0,5.1283,5.1285,5.1288,5.1228,5.1224,5.122,5.1216,5.1416,5.1425,5.1434,0,0,0,0,0,0,0,0,0,0,0,0,0,5.0679,5.0687,5.1092,5.1095,5.1097,5.1283,5.1286,5.1288,5.1229,5.1224,5.1219,5.1214,5.1413,5.1424,5.1435,0,0,0,0,0,0,0,0,0,0,0,0,0,5.0863,5.0689,5.1092,5.1089,5.1091,5.1282,5.1286,5.1289,5.123,5.1224,5.1217,5.1212,5.141,5.1423,5.1437,5.1643,0,0,5.1478,5.1484,0,0,0,0,0,0,0,0,5.0853,5.0878,5.1087,5.109,5.1092,5.1225,5.1213,5.1408,5.1231,5.1177,5.1216,5.1209,5.1358,5.1376,5.1425,5.1652,5.1661,5.148,5.1488,5.1494,5.1498,0,0,0,0,0,0,0,5.084,5.087,5.1168,5.1091,5.1094,5.108,5.1099,5.125,5.13,5.1181,5.1178,5.1201,5.1358,5.1412,5.1429,5.1664,5.1479,5.1491,5.15,5.1505,5.2069,5.2076,0,0,0,0,0,0,5.0825,5.086,5.1162,5.1174,5.0955,5.1092,5.1114,5.1189,5.1298,5.1308,5.1206,5.1197,5.1392,5.1413,5.1436,5.1684,5.1494,5.1507,5.1514,5.2063,5.2071,5.2078,0,0,0,0,0,0,5.0817,5.0853,5.1154,5.1016,5.1053,5.1106,5.119,5.1196,5.1249,5.1316,5.1325,5.1251,5.1388,5.1417,5.1591,5.169,5.1513,5.1525,5.2055,5.2065,5.2074,5.2182,0,0,0,0,0,0,5.0805,5.085,5.0928,5.1018,5.1061,5.1305,5.1197,5.1204,5.1273,5.1263,5.1361,5.1372,5.1385,5.1571,5.1605,5.1706,5.1536,5.2046,5.2059,5.2071,5.217,5.2194,5.2215,0,0,0,0,0,5.0791,5.0952,5.0933,5.0969,5.1159,5.1311,5.1336,5.1347,5.1281,5.136,5.1403,5.1369,5.1674,5.159,5.1627,5.1733,5.204,5.2056,5.207,5.2159,5.2189,5.2215,0,0,0,0,0,0,5.0875,5.0964,5.0943,5.1138,5.1217,5.1301,5.1401,5.1378,5.1479,5.1466,5.1477,5.15,5.1678,5.1724,5.1628,5.1938,5.1847,5.1871,5.1902,5.1931,5.1954,5.1939,5.1547,0,0,0,0,0,5.0916,5.103,5.1103,5.1268,5.1309,5.1348,5.1415,5.1416,5.1499,5.1533,5.1588,5.1672,5.1786,5.1861,5.197,5.2176,5.2196,5.2268,5.229,5.2309,5.2329,5.244,5.2472,5.2128,5.2128,5.2128,0,0,5.1002,5.1065,5.1137,5.1286,5.1348,5.1467,5.1377,5.1507,5.1596,5.1553,5.172,5.1764,5.1858,5.2048,5.2135,5.2092,5.2428,5.2328,5.2343,5.2353,5.2459,5.2492,5.252,5.2139,5.2137,5.2135,0,0,5.122,5.1279,5.1423,5.1486,5.1579,5.1604,5.1639,5.1726,5.1753,5.1921,5.189,5.1997,5.2194,5.2262,5.2322,5.2565,5.2536,5.26,5.272,5.2828,5.2855,5.2879,5.2965,5.2995,5.262,5.262,5.2621,0,5.1316,5.1493,5.15,5.1633,5.1699,5.1664,5.181,5.1871,5.1996,5.2043,5.1992,5.2238,5.2299,5.2504,5.2563,5.2613,5.2653,5.2589,5.285,5.2874,5.2897,5.2979,5.3011,5.2627,5.2627,5.2626,5.2625,0,5.1606,5.173,5.1834,5.1954,5.2032,5.2171,5.22,5.2279,5.2273,5.2304,5.2475,5.2547,5.2669,5.2718,5.2715,5.2923,5.2893,5.2846,5.2755,5.2937,5.3014,5.3045,5.2637,5.2635,5.2633,5.2631,0,0,5.1882,5.2003,5.2041,5.2094,5.2195,5.2291,5.2428,5.2546,5.2613,5.2701,5.2816,5.2983,5.294,5.3009,5.3013,5.3108,5.3294,5.3049,5.3052,5.3092,5.3527,5.3561,5.3597,5.3276,5.3282,5.3287,5.3519,0,5.2108,5.2347,5.2357,5.2575,5.2689,5.2657,5.2777,5.2852,5.2884,5.2987,5.3023,5.3141,5.3076,5.3116,5.3209,5.3252,5.3382,5.3235,5.3384,5.3389,5.336,5.3637,5.3674,5.3888,5.3549,5.3554,5.3558,0,5.2403,5.2497,5.2727,5.2809,5.2857,5.2965,5.3073,5.3171,5.3255,5.3272,5.3348,5.3338,5.3479,5.3383,5.3578,5.3478,5.354,5.357,5.3579,5.3592,5.3484,5.3657,5.3958,5.3989,5.3606,5.3602,5.3598,0,5.258,5.2765,5.2925,5.2972,5.3073,5.3149,5.3195,5.3273,5.3343,5.3438,5.3484,5.3595,5.3656,5.3743,5.3764,5.3692,5.3958,5.3864,5.3976,5.3976,5.4033,5.4029,5.4346,5.4075,5.4074,5.4074,5.4073,0,5.283,5.2971,5.3006,5.3105,5.3262,5.3273,5.3429,5.347,5.3539,5.3646,5.3626,5.3727,5.3749,5.3854,5.3872,5.403,5.4058,5.4076,5.4078,5.4077,5.4075,5.4117,5.4102,5.4082,5.408,5.4079,5.4077,0,5.3054,5.3083,5.3256,5.3337,5.336,5.3473,5.3542,5.3638,5.3667,5.3802,5.3835,5.3882,5.4005,5.4035,5.4182,5.4194,5.438,5.4369,5.4351,5.435,5.446,5.4449,5.4815,5.4863,5.4561,5.4564,5.4566,0,5.3211,5.3319,5.3411,5.348,5.3529,5.3641,5.3711,5.3726,5.3801,5.3904,5.3987,5.4107,5.4204,5.4403,5.4451,5.4563,5.4554,5.4675,5.4571,5.4566,5.4555,5.4547,5.4558,5.4694,5.4697,5.47,5.4702,0,5.3487,5.3495,5.3597,5.3704,5.3789,5.3874,5.3956,5.4014,5.404,5.4125,5.4249,5.4324,5.4473,5.4593,5.4706,5.4754,5.4733,5.4734,5.4766,5.4765,5.4749,5.4758,5.4404,5.4726,5.4724,5.4722,5.4721,5.472,5.3682,5.3775,5.3854,5.3968,5.403,5.4107,5.4199,5.424,5.4343,5.4465,5.4468,5.4603,5.4685,5.4833,5.4888,5.4995,5.4958,5.5005,5.5016,5.5027,5.5036,5.4733,5.5016,5.5015,5.5015,5.5014,5.5014,0,5.3955,5.4003,5.4108,5.4222,5.4311,5.4282,5.4371,5.4448,5.4567,5.4644,5.4739,5.4882,5.4998,5.5055,5.5169,5.5244,5.5237,5.5274,5.5268,5.5279,5.5063,5.5023,5.5277,5.5277,5.5277,5.5277,5.5277,5.5277,5.4107,5.4264,5.4282,5.4469,5.4517,5.4648,5.4701,5.4772,5.4833,5.4992,5.5088,5.5123,5.5193,5.5312,5.5417,5.5431,5.5474,5.5515,5.5524,5.5321,5.5294,5.5269,5.5231,5.5525,5.5525,5.5731,5.5733,5.5734]},{"header":{"parameterUnit":"m.s-1","parameterCategory":1,"la1":30.2991,"la2":30.254,"lo1":-89.0895,"lo2":-89.0444,"dy":0.0017,"dx":0.0017,"nx":28,"ny":28,"refTime":"2024-08-18T03:00:00:Z","depth":0,"parameterNumber":3,"parameterNumberName":"V-component_of_WINDS"},"data":[0,0,0,0,0,0,0,0,0,0,0,0,0,0,0,0,0,0,0,0,0,0,0,0,0,0,0,0,0,0,0,0,0,0,0,0,0,0,0,0,0,0,0,0,0,0,0,0,0,0,0,0,0,0,0,0,0,0,2.5962,2.5962,0,2.6011,2.6011,2.6012,2.5948,2.5946,2.5944,2.5942,2.5991,2.5995,2.5998,0,0,0,0,0,0,0,0,0,0,0,0,0,2.5812,2.5815,2.5962,2.5962,2.5963,2.6011,2.6012,2.6012,2.5949,2.5946,2.5943,2.5941,2.599,2.5994,2.5998,0,0,0,0,0,0,0,0,0,0,0,0,0,2.5871,2.5816,2.5962,2.5937,2.5936,2.6011,2.6012,2.6012,2.5949,2.5946,2.5942,2.5939,2.5989,2.5994,2.5999,2.61,0,0,2.6015,2.6017,0,0,0,0,0,0,0,0,2.5867,2.5876,2.594,2.5939,2.5937,2.597,2.5977,2.6042,2.595,2.5944,2.5942,2.5938,2.5987,2.5992,2.6009,2.6102,2.6105,2.6015,2.6018,2.6021,2.6022,0,0,0,0,0,0,0,2.5863,2.5874,2.5981,2.5941,2.5939,2.5923,2.5928,2.5989,2.5984,2.5944,2.594,2.5947,2.5985,2.6004,2.6009,2.6105,2.6015,2.602,2.6023,2.6025,2.6283,2.6287,0,0,0,0,0,0,2.5862,2.5871,2.598,2.5983,2.5893,2.5929,2.5934,2.5963,2.5983,2.5983,2.595,2.5943,2.5997,2.6003,2.6011,2.613,2.6021,2.6025,2.6028,2.628,2.6284,2.6288,0,0,0,0,0,0,2.5859,2.5873,2.5978,2.5926,2.5938,2.5935,2.5968,2.5966,2.5984,2.5987,2.5986,2.5969,2.5994,2.6004,2.6078,2.6131,2.6028,2.6032,2.6275,2.6281,2.6286,2.6371,0,0,0,0,0,0,2.5855,2.5872,2.5911,2.5927,2.5941,2.6045,2.5972,2.5969,2.5994,2.5986,2.6006,2.6006,2.5992,2.6071,2.6083,2.6137,2.6037,2.6271,2.6278,2.6284,2.6363,2.6379,2.6392,0,0,0,0,0,2.585,2.5933,2.5913,2.5927,2.5989,2.6048,2.6056,2.6039,2.5998,2.6037,2.6039,2.6005,2.6123,2.6079,2.6093,2.6148,2.6267,2.6276,2.6284,2.6357,2.6376,2.6391,0,0,0,0,0,0,2.5923,2.5934,2.5913,2.6003,2.6025,2.6037,2.6086,2.606,2.6094,2.6085,2.6063,2.6068,2.6147,2.6155,2.6105,2.6247,2.6188,2.62,2.6239,2.6257,2.6271,2.6268,2.6041,0,0,0,0,0,2.595,2.5997,2.6004,2.6083,2.6095,2.6089,2.6114,2.6099,2.6121,2.613,2.6137,2.6159,2.6201,2.6229,2.6268,2.6364,2.6367,2.6409,2.6423,2.6434,2.6445,2.6495,2.6514,2.6316,2.6316,2.6316,0,0,2.6005,2.6017,2.6048,2.6098,2.6113,2.6162,2.6097,2.6152,2.6188,2.6138,2.6209,2.6215,2.6238,2.6323,2.6361,2.6332,2.65,2.6445,2.6454,2.6459,2.6506,2.6525,2.6541,2.6322,2.6321,2.632,0,0,2.6131,2.6145,2.6212,2.6229,2.6253,2.6248,2.6264,2.628,2.6282,2.6353,2.6316,2.6358,2.6432,2.6449,2.6468,2.66,2.657,2.6613,2.6688,2.6737,2.6753,2.6766,2.6813,2.683,2.6623,2.6623,2.6623,0,2.6197,2.627,2.625,2.6307,2.633,2.6287,2.6354,2.6371,2.6407,2.6423,2.639,2.648,2.6493,2.6581,2.6613,2.663,2.6647,2.6611,2.6752,2.6766,2.6778,2.6822,2.684,2.6628,2.6628,2.6627,2.6627,0,2.635,2.64,2.6452,2.6487,2.6515,2.6578,2.6567,2.6597,2.658,2.6578,2.665,2.6664,2.6704,2.6724,2.6707,2.681,2.6791,2.6756,2.6696,2.6802,2.6844,2.6861,2.6636,2.6634,2.6632,2.6631,0,0,2.6524,2.6547,2.6566,2.6581,2.6604,2.6643,2.6703,2.6742,2.6769,2.6795,2.6844,2.6906,2.6873,2.6894,2.6879,2.6922,2.7025,2.6881,2.6881,2.6907,2.7139,2.7166,2.7186,2.7005,2.7008,2.7011,2.7137,0,2.665,2.6754,2.6737,2.6837,2.6884,2.6843,2.6895,2.6914,2.6914,2.6953,2.6952,2.6997,2.695,2.6962,2.7003,2.7004,2.7072,2.6995,2.7051,2.7053,2.7047,2.7208,2.7237,2.7356,2.7153,2.7156,2.7158,0,2.6811,2.6843,2.6948,2.6963,2.6981,2.7029,2.7063,2.7101,2.7122,2.7118,2.7142,2.7118,2.7177,2.7117,2.7197,2.7145,2.7166,2.717,2.7174,2.7179,2.7112,2.7217,2.7393,2.7411,2.7183,2.7181,2.7179,0,2.6928,2.6996,2.7068,2.7082,2.7102,2.7135,2.7145,2.7162,2.7187,2.7217,2.7233,2.7269,2.7289,2.7318,2.7304,2.7261,2.7387,2.7325,2.7386,2.7386,2.7414,2.7413,2.7596,2.7428,2.7428,2.7427,2.7427,0,2.7071,2.7136,2.7121,2.7165,2.7237,2.7217,2.7289,2.7293,2.7308,2.7352,2.7319,2.736,2.734,2.738,2.737,2.7438,2.7447,2.7445,2.7442,2.7449,2.7449,2.7463,2.7455,2.7432,2.7431,2.743,2.7429,0,2.7213,2.7205,2.7281,2.7293,2.7297,2.735,2.7359,2.74,2.7397,2.7453,2.7465,2.746,2.7505,2.7494,2.7544,2.7536,2.7622,2.7608,2.7615,2.7612,2.7673,2.7667,2.7872,2.7898,2.7713,2.7715,2.7716,0,2.7305,2.7355,2.7372,2.7399,2.7411,2.7455,2.748,2.7462,2.7489,2.7516,2.7553,2.7596,2.7628,2.7702,2.7703,2.774,2.7727,2.7796,2.7732,2.7737,2.7728,2.7725,2.773,2.7809,2.7811,2.7813,2.7814,0,2.7469,2.7462,2.75,2.7536,2.7567,2.7595,2.7619,2.7643,2.7626,2.7659,2.7705,2.773,2.778,2.7822,2.7857,2.7865,2.7837,2.7834,2.785,2.7858,2.786,2.7859,2.765,2.783,2.7828,2.7827,2.7826,2.7825,2.7589,2.7631,2.765,2.7692,2.7709,2.7732,2.7771,2.7773,2.7811,2.785,2.7837,2.7889,2.7908,2.7951,2.7964,2.8004,2.7978,2.8001,2.8007,2.8013,2.802,2.7853,2.801,2.801,2.8009,2.8009,2.8008,0,2.7751,2.7761,2.78,2.7835,2.7869,2.7839,2.7864,2.7894,2.7941,2.7961,2.7994,2.8046,2.8087,2.809,2.8128,2.8159,2.8147,2.817,2.8168,2.817,2.8042,2.8024,2.8179,2.8179,2.8179,2.8179,2.8179,2.8179,2.7839,2.7909,2.7904,2.7981,2.799,2.8042,2.8058,2.808,2.8095,2.8155,2.8189,2.8191,2.8204,2.8242,2.8278,2.8278,2.8293,2.8321,2.8316,2.8196,2.8179,2.8163,2.8146,2.8324,2.8325,2.8441,2.8442,2.8443]}]]